Skip Page Navigation
NASA JPL Caltech
NASA Logo - Jet Propulsion Laboratory + View the NASA Portal
+ Center for Near-Earth Object Studies
JPL Home Earth Solar System Stars & Galaxies Technology
JPL Solar System Dynamics
BODIES ORBITS EPHEMERIDES TOOLS PHYSICAL DATA DISCOVERY FAQ SITE MAP
JPL Small-Body Database Browser
Search: [ help ]  
13946 (1990 OK3)
Classification: Main-belt Asteroid          SPK-ID: 2013946
Ephemeris | Orbit Diagram | Orbital Elements | Mission Design | Physical Parameters | Discovery Circumstances ]

[ hide orbit diagram ]

For accurate long-term ephemerides, please instead use our Horizons system.This orbit viewer was implemented using two-body methods, and hence should not be used for determining accurate long-term trajectories (over several years or decades) or planetary encounter circumstances.


[ revert to old Java-based viewer ]

Orbital Elements at Epoch 2459000.5 (2020-May-31.0) TDB
Reference: JPL 22 (heliocentric ecliptic J2000)
 Element Value Uncertainty (1-sigma)   Units 
e .2158874961753079 4.3141e-08  
a 2.408420822359462 1.1621e-08 au
q 1.888472881283802 1.0525e-07 au
i 3.090100436356261 4.4777e-06 deg
node 127.7548214854454 8.0433e-05 deg
peri 205.0814822920322 8.1088e-05 deg
M 341.8555115867453 1.5102e-05 deg
tp 2459069.308044221889
(2020-Aug-07.80804422)
5.7625e-05 TDB
period 1365.202223160201
3.74
9.8809e-06
2.705e-08
d
yr
n .2636971973036082 1.9086e-09 deg/d
Q 2.928368763435123 1.413e-08 au
  Orbit Determination Parameters
   # obs. used (total)      1414  
   data-arc span      10906 days (29.86 yr)  
   first obs. used      1990-07-27  
   last obs. used      2020-06-05  
   planetary ephem.      DE431  
   SB-pert. ephem.      SB431-N16  
   condition code      0  
   norm. resid. RMS      .54706  
   source      ORB  
   producer      Otto Matic  
   solution date      2020-Jun-23 17:40:22  

Additional Information
 Earth MOID = .878615 au 
 Jupiter MOID = 2.44092 au 
 T_jup = 3.487 
[ show covariance matrix ]

Ephemeris | Orbit Diagram | Orbital Elements | Mission Design | Physical Parameters | Discovery Circumstances ]

Physical Parameter Table
Parameter Symbol Value Units Sigma Reference Notes
absolute magnitude H 14.6   n/a MPO473956  
diameter diameter 3.297 km 0.227 urn:nasa:pds:neowise_diameters_albedos::2.0[mainbelt] (http://adsabs.harvard.edu/abs/2011ApJ...741...68M)  
geometric albedo albedo 0.282   0.071 urn:nasa:pds:neowise_diameters_albedos::2.0[mainbelt] (http://adsabs.harvard.edu/abs/2011ApJ...741...68M)  

13946 (1990 OK3)          Discovered 1990-Jul-27 by Holt, H. E. at Palomar
Reference: 20000320/Numbers.arcLast Updated: 2004-04-19

Alternate Designations
 1990 OK3 = 1994 TM1 = 2000 CR34 
Ephemeris | Orbit Diagram | Orbital Elements | Mission Design | Physical Parameters | Discovery Circumstances ]
ABOUT SSD CREDITS/AWARDS PRIVACY/COPYRIGHT GLOSSARY LINKS
FirstGov 2020-Aug-15 18:29 UT
(server date/time)  
NASA Home Page
Site Manager:   Ryan S. Park
Webmaster  Alan B. Chamberlin